Simultaneous Nadir Overpasses (SNOs) Predictions

Prediction of SNOs between NOAA-19 and TERRA Satellite Orbit:

Table of predicted SNOs for the next 14.0 days since TLE Epoch: 10/8/2022
Index Date (NOAA-19) Time (NOAA-19) Lat,Lon (NOAA-19) SZA (NOAA-19 ) Date (TERRA) Time (TERRA) Lat,Lon (TERRA) SZA (TERRA ) Distance(km) Time Diff (sec)
1 10/09/2022 07:08:46 -80.87, -71.28 90.86 10/09/2022 07:09:00 -80.88, -71.31 90.85 1.18 14
2 10/11/2022 12:41:41 80.88, 25.05 89.96 10/11/2022 12:42:36 80.88, 25.15 89.99 2.01 55
3 10/11/2022 13:32:36 -80.88,-167.36 90.00 10/11/2022 13:32:03 -80.87,-167.29 90.02 1.65 33
4 10/13/2022 19:05:30 80.88, -70.59 90.85 10/13/2022 19:05:38 80.87, -70.63 90.85 0.77 8
5 10/16/2022 00:38:16 -80.88, 25.92 88.35 10/16/2022 00:39:14 -80.86, 25.82 88.35 2.61 58
6 10/16/2022 01:29:19 80.88,-166.31 91.72 10/16/2022 01:28:39 80.89,-166.21 91.72 2.45 40
7 10/18/2022 07:02:05 -80.88, -69.96 87.50 10/18/2022 07:02:15 -80.87, -69.87 87.50 2.05 10
8 10/20/2022 12:34:59 80.88, 26.90 93.32 10/20/2022 12:35:48 80.90, 27.04 93.37 2.85 49



Historial Predications of SNOs between NOAA-19 and TERRA
